Raleigh-Durham Airport, NC

8:04 AM EST on December 15, 2017 (GMT -0500)
Raleigh-Durham International

Weather History for KRDU - January, 2013

Change the Weather History Date:

Saturday, January 26, 2013

  Actual Average Record
Temperature  
Mean Temperature 33 °F 42 °F  
Max Temperature 38 °F 52 °F 78 °F (1950)
Min Temperature 27 °F 31 °F 10 °F (1940)
Degree Days  
Heating Degree Days 32 23  
Month to date heating degree days 555 629  
Since 1 July heating degree days 1732 1880  
Cooling Degree Days 0 0  
Month to date cooling degree days 0 0  
Year to date cooling degree days 0 0  
Moisture  
Dew Point 27 °F    
Average Humidity 85    
Maximum Humidity 100    
Minimum Humidity 70    
Precipitation  
Precipitation 0.00 in 0.11 in 1.34 in (1921)
Month to date precipitation 2.65 2.94  
Year to date precipitation 2.65 2.94  
Snow  
Snow 0.00 in 0.10 in 7.60 in (1966)
Month to date snowfall 1.0 2.4  
Since 1 July snowfall 1.0 3.1  
Snow Depth 0.00 in    
Sea Level Pressure  
Sea Level Pressure 30.24 in    
Wind  
Wind Speed 1 mph (West)    
Max Wind Speed 8 mph    
Max Gust Speed 10 mph    
Visibility 4 miles    
Events Fog    
T = Trace of Precipitation, MM = Missing Value Source: NWS Daily Summary

Daily Weather History Graph

Daily Weather History Graph

Search for Another Location

Airport or City:

Trip Planner

Search our weather history database for the weather conditions in past years. The results will help you decide how hot, cold, wet, or windy it might be!

Date:

Astronomy

Jan. 26, 2013 Rise Set
Actual Time 7:19 AM EST 5:36 PM EST
Civil Twilight 6:52 AM EST 6:03 PM EST
Nautical Twilight 6:21 AM EST 6:34 PM EST
Astronomical Twilight 5:51 AM EST 7:04 PM EST
Moon 5:27 PM EST (1/26) 6:37 AM EST (1/26)
Length of Visible Light 11h 11m
Length of Day
10h 16m
Full, 100% of the Moon is Illuminated
Jan 26
Full
Jan 26
Full
Feb 3
Last Quarter
Feb 10
New
Feb 17
First Quarter

Hourly Weather History & Observations

Time (EST) Temp. Windchill Dew Point Humidity Pressure Visibility Wind Dir Wind Speed Gust Speed Precip Events Conditions
12:51 AM 26.6 °F 21.2 °F 24.8 °F 93% 30.10 in 5.0 mi West 4.6 mph - N/A   Overcast
1:51 AM 27.0 °F 21.6 °F 24.1 °F 89% 30.11 in 4.0 mi West 4.6 mph - N/A   Overcast
2:33 AM 26.6 °F 20.0 °F 24.8 °F 93% 30.09 in 3.0 mi WSW 5.8 mph - N/A   Overcast
2:51 AM 27.0 °F 23.0 °F 25.0 °F 92% 30.11 in 2.0 mi WSW 3.5 mph - N/A   Overcast
3:51 AM 27.0 °F 21.6 °F 25.0 °F 92% 30.11 in 2.0 mi SW 4.6 mph - N/A   Overcast
4:23 AM 26.6 °F 21.2 °F 24.8 °F 93% 30.10 in 0.5 mi WSW 4.6 mph - N/A Fog Light Freezing Fog
4:51 AM 27.0 °F - 25.0 °F 92% 30.12 in 0.5 mi Calm Calm - N/A Fog Light Freezing Fog
5:51 AM 27.0 °F - 26.1 °F 96% 30.13 in 0.5 mi Calm Calm - N/A Fog Light Freezing Fog
6:51 AM 28.0 °F - 26.1 °F 92% 30.17 in 0.5 mi Calm Calm - N/A Fog Light Freezing Fog
7:51 AM 28.0 °F - 26.1 °F 92% 30.19 in 0.5 mi Calm Calm - N/A Fog Light Freezing Fog
8:51 AM 28.9 °F - 26.1 °F 89% 30.22 in 0.5 mi Calm Calm - N/A Fog Light Freezing Fog
9:31 AM 28.4 °F - 26.6 °F 93% 30.22 in 1.5 mi Calm Calm - N/A   Overcast
9:51 AM 28.9 °F - 27.0 °F 92% 30.25 in 1.5 mi Calm Calm - N/A   Overcast
10:24 AM 30.2 °F - 28.4 °F 93% 30.25 in 1.5 mi Calm Calm - N/A   Overcast
10:51 AM 30.9 °F - 28.0 °F 89% 30.27 in 2.0 mi Calm Calm - N/A   Overcast
11:14 AM 30.2 °F - 28.4 °F 93% 30.26 in 3.0 mi Calm Calm - N/A   Overcast
11:51 AM 32.0 °F - 28.9 °F 88% 30.26 in 3.0 mi Calm Calm - N/A   Overcast
12:51 PM 35.1 °F 31.0 °F 30.0 °F 82% 30.24 in 6.0 mi North 4.6 mph - N/A   Overcast
1:51 PM 36.0 °F 32.1 °F 30.0 °F 79% 30.22 in 9.0 mi NNE 4.6 mph - N/A   Mostly Cloudy
2:51 PM 37.0 °F 33.3 °F 30.0 °F 76% 30.24 in 10.0 mi NNE 4.6 mph - N/A   Mostly Cloudy
3:51 PM 37.0 °F - 28.0 °F 70% 30.25 in 10.0 mi Calm Calm - N/A   Mostly Cloudy
4:51 PM 37.0 °F - 28.0 °F 70% 30.26 in 10.0 mi Calm Calm - N/A   Mostly Cloudy
5:51 PM 33.1 °F - 28.0 °F 82% 30.28 in 10.0 mi Calm Calm - N/A   Mostly Cloudy
6:51 PM 30.9 °F - 28.0 °F 89% 30.31 in 8.0 mi Calm Calm - N/A   Mostly Cloudy
7:51 PM 30.0 °F - 28.0 °F 92% 30.32 in 7.0 mi Calm Calm - N/A   Scattered Clouds
8:51 PM 30.0 °F - 27.0 °F 88% 30.34 in 6.0 mi Calm Calm - N/A   Partly Cloudy
9:51 PM 28.9 °F - 26.1 °F 89% 30.38 in 6.0 mi Calm Calm - N/A   Partly Cloudy
10:51 PM 28.0 °F - 26.1 °F 92% 30.39 in 4.0 mi Calm Calm - N/A   Partly Cloudy
11:14 PM 26.6 °F - 24.8 °F 93% 30.39 in 4.0 mi Calm Calm - N/A   Scattered Clouds
11:31 PM 26.6 °F - 24.8 °F 93% 30.40 in 4.0 mi Calm Calm - N/A   Mostly Cloudy
11:51 PM 27.0 °F - 25.0 °F 92% 30.42 in 4.0 mi Calm Calm - N/A   Overcast
11:54 PM 26.6 °F - 24.8 °F 93% 30.41 in 0.2 mi Calm Calm - N/A Fog Light Freezing Fog